Bay City, TX

8:00 AM CDT on March 27, 2017 (GMT -0500)
Bay City

Weather History for KBYY - March, 2013

Change the Weather History Date:

Thursday, March 14, 2013

  Actual Average (KLBX) Record (KLBX)
Temperature  
Mean Temperature 58 °F -  
Max Temperature 75 °F 68 °F 82 °F (2016)
Min Temperature 40 °F 53 °F 39 °F (2013)
Degree Days  
Heating Degree Days 8    
Growing Degree Days 8 (Base 50)    
Moisture  
Dew Point 47 °F    
Average Humidity 73    
Maximum Humidity 100    
Minimum Humidity 33    
Precipitation  
Precipitation 0.00 in - - ()
Sea Level Pressure  
Sea Level Pressure 30.35 in    
Wind  
Wind Speed 5 mph (SE)    
Max Wind Speed 15 mph    
Max Gust Speed 21 mph    
Visibility 8 miles    
Events Fog    
Averages and records for this station are not official NWS values.
T = Trace of Precipitation, MM = Missing Value Source: NWS Daily Summary

Daily Weather History Graph

Daily Weather History Graph

Search for Another Location

Airport or City:

Trip Planner

Search our weather history database for the weather conditions in past years. The results will help you decide how hot, cold, wet, or windy it might be!

Date:

Astronomy

Mar. 14, 2013 Rise Set
Actual Time 7:33 AM CDT 7:31 PM CDT
Civil Twilight 7:10 AM CDT 7:55 PM CDT
Nautical Twilight 6:42 AM CDT 8:22 PM CDT
Astronomical Twilight 6:15 AM CDT 8:50 PM CDT
Moon 9:05 AM CDT (3/14) 10:29 PM CDT (3/14)
Length of Visible Light 12h 44m
Length of Day
11h 57m
Waxing Crescent, 9% of the Moon is Illuminated
Mar 14
Waxing Crescent
Mar 19
First Quarter
Mar 27
Full
Apr 2
Last Quarter
Apr 10
New

Hourly Weather History & Observations

Time (CDT) Temp. Windchill Dew Point Humidity Pressure Visibility Wind Dir Wind Speed Gust Speed Precip Events Conditions
12:15 AM 50.4 °F - 50.4 °F 100% 30.38 in 10.0 mi Calm Calm - N/A   Clear
12:35 AM 49.8 °F - 49.8 °F 100% 30.38 in 10.0 mi SE 3.5 mph - N/A   Clear
12:55 AM 48.2 °F - 48.2 °F 100% 30.37 in 10.0 mi SSE 4.6 mph - N/A   Clear
1:15 AM 48.6 °F - 48.6 °F 100% 30.36 in 10.0 mi Calm Calm - N/A   Clear
1:35 AM 48.7 °F - 48.7 °F 100% 30.36 in 7.0 mi Calm Calm - N/A   Clear
1:55 AM 49.3 °F - 49.3 °F 100% 30.36 in 7.0 mi Calm Calm - N/A   Clear
2:15 AM 46.9 °F - 46.9 °F 100% 30.35 in 10.0 mi Calm Calm - N/A   Clear
2:35 AM 45.9 °F - 45.9 °F 100% 30.35 in 10.0 mi Calm Calm - N/A   Clear
2:55 AM 45.5 °F - 45.5 °F 100% 30.34 in 10.0 mi Calm Calm - N/A   Clear
3:15 AM 44.8 °F - 44.8 °F 100% 30.34 in 10.0 mi Calm Calm - N/A   Clear
3:35 AM 44.4 °F - 44.4 °F 100% 30.34 in 7.0 mi Calm Calm - N/A   Clear
3:55 AM 44.4 °F - 44.4 °F 100% 30.33 in 4.0 mi Calm Calm - N/A   Clear
4:15 AM 44.2 °F - 44.2 °F 100% 30.33 in 7.0 mi Calm Calm - N/A   Clear
4:35 AM 43.2 °F - 43.2 °F 100% 30.32 in 4.0 mi Calm Calm - N/A   Clear
4:55 AM 42.6 °F - 42.6 °F 100% 30.33 in 7.0 mi Calm Calm - N/A   Clear
5:15 AM 42.1 °F 40.2 °F 42.1 °F 100% 30.33 in 5.0 mi ENE 3.5 mph - N/A   Clear
5:35 AM 41.0 °F - 41.0 °F 100% 30.33 in 0.5 mi Calm Calm - N/A Fog Fog
5:55 AM 41.2 °F 39.2 °F 41.2 °F 100% 30.34 in 0.5 mi ENE 3.5 mph - N/A Fog Fog
6:15 AM 41.0 °F 39.0 °F 41.0 °F 100% 30.34 in 0.2 mi ENE 3.5 mph - N/A Fog Fog
6:35 AM 40.8 °F 38.8 °F 40.8 °F 100% 30.35 in 0.2 mi East 3.5 mph - N/A Fog Fog
6:55 AM 41.0 °F 38.0 °F 41.0 °F 100% 30.36 in 0.2 mi ENE 4.6 mph - N/A Fog Fog
7:15 AM 41.2 °F 39.2 °F 41.2 °F 100% 30.36 in 0.5 mi East 3.5 mph - N/A Fog Fog
7:35 AM 41.4 °F 39.4 °F 41.4 °F 100% 30.37 in 0.2 mi ENE 3.5 mph - N/A Fog Fog
7:55 AM 41.9 °F 39.0 °F 41.9 °F 100% 30.37 in 1.2 mi East 4.6 mph - N/A   Mist
8:15 AM 44.4 °F 41.2 °F 44.4 °F 100% 30.37 in 5.0 mi ENE 5.8 mph - N/A   Clear
8:35 AM 50.0 °F - 50.0 °F 100% 30.38 in 7.0 mi ENE 3.5 mph - N/A   Clear
8:55 AM 53.1 °F - 53.1 °F 100% 30.39 in 10.0 mi ENE 3.5 mph - N/A   Clear
9:15 AM 56.5 °F - 56.5 °F 100% 30.39 in 10.0 mi East 5.8 mph - N/A   Clear
9:35 AM 59.0 °F - 59.0 °F 100% 30.40 in 10.0 mi East 4.6 mph - N/A   Clear
9:55 AM 62.1 °F - 59.9 °F 93% 30.40 in 10.0 mi ESE 8.1 mph - N/A   Clear
10:15 AM 65.7 °F - 54.9 °F 68% 30.40 in 10.0 mi ESE 9.2 mph - N/A   Clear
10:35 AM 68.4 °F - 52.5 °F 57% 30.41 in 10.0 mi SE 10.4 mph - N/A   Clear
10:55 AM 70.5 °F - 51.3 °F 50% 30.41 in 10.0 mi ESE 10.4 mph - N/A   Clear
11:15 AM 72.0 °F - 48.2 °F 43% 30.41 in 10.0 mi SE 13.8 mph - N/A   Clear
11:35 AM 72.7 °F - 46.0 °F 39% 30.41 in 10.0 mi South 12.7 mph 17.3 mph N/A   Clear
11:55 AM 73.2 °F - 46.2 °F 38% 30.41 in 10.0 mi SSE 11.5 mph 17.3 mph N/A   Clear
12:15 PM 73.4 °F - 45.3 °F 37% 30.42 in 10.0 mi SSE 13.8 mph 17.3 mph N/A   Clear
12:35 PM 73.8 °F - 44.8 °F 35% 30.41 in 10.0 mi SE 12.7 mph 16.1 mph N/A   Clear
12:55 PM 74.3 °F - 43.5 °F 33% 30.40 in 10.0 mi SE 9.2 mph - N/A   Clear
1:15 PM 74.5 °F - 45.0 °F 35% 30.39 in 10.0 mi South 12.7 mph 20.7 mph N/A   Clear
1:35 PM 74.8 °F - 46.2 °F 36% 30.39 in 10.0 mi SSE 11.5 mph 16.1 mph N/A   Clear
1:55 PM 74.5 °F - 46.2 °F 37% 30.38 in 10.0 mi SSE 11.5 mph 17.3 mph N/A   Clear
2:15 PM 74.7 °F - 46.4 °F 37% 30.37 in 10.0 mi SSE 11.5 mph 16.1 mph N/A   Clear
2:35 PM 75.0 °F - 46.0 °F 36% 30.36 in 10.0 mi SSE 12.7 mph 19.6 mph N/A   Clear
2:55 PM 75.2 °F - 46.8 °F 36% 30.35 in 10.0 mi South 9.2 mph - N/A   Clear
3:15 PM 75.0 °F - 46.9 °F 37% 30.34 in 10.0 mi SSE 12.7 mph 18.4 mph N/A   Clear
3:35 PM 74.7 °F - 47.1 °F 38% 30.34 in 10.0 mi South 12.7 mph 18.4 mph N/A   Clear
3:55 PM 74.5 °F - 47.5 °F 38% 30.33 in 10.0 mi South 12.7 mph 18.4 mph N/A   Clear
4:15 PM 74.3 °F - 47.8 °F 39% 30.32 in 10.0 mi South 15.0 mph - N/A   Clear
4:35 PM 73.6 °F - 47.7 °F 40% 30.32 in 10.0 mi South 11.5 mph 16.1 mph N/A   Clear
4:55 PM 73.2 °F - 48.0 °F 41% 30.32 in 10.0 mi South 9.2 mph - N/A   Clear
5:15 PM 72.5 °F - 48.0 °F 42% 30.31 in 10.0 mi SSE 8.1 mph 17.3 mph N/A   Clear
5:35 PM 72.0 °F - 48.2 °F 43% 30.31 in 10.0 mi SSE 10.4 mph 17.3 mph N/A   Clear
5:55 PM 71.1 °F - 48.0 °F 44% 30.31 in 10.0 mi ESE 12.7 mph - N/A   Clear
6:15 PM 70.2 °F - 47.8 °F 45% 30.32 in 10.0 mi SE 10.4 mph - N/A   Clear
6:35 PM 69.3 °F - 48.0 °F 47% 30.32 in 10.0 mi SE 10.4 mph - N/A   Clear
6:55 PM 67.8 °F - 47.7 °F 48% 30.32 in 10.0 mi SE 6.9 mph - N/A   Clear
7:15 PM 66.2 °F - 47.5 °F 51% 30.31 in 10.0 mi SE 8.1 mph - N/A   Clear
7:35 PM 64.0 °F - 47.3 °F 54% 30.31 in 10.0 mi SE 8.1 mph - N/A   Clear
7:55 PM 62.1 °F - 47.3 °F 58% 30.30 in 10.0 mi SE 5.8 mph - N/A   Clear
8:15 PM 59.0 °F - 46.8 °F 64% 30.30 in 10.0 mi ESE 5.8 mph - N/A   Clear
8:35 PM 55.4 °F - 46.4 °F 72% 30.30 in 10.0 mi ESE 5.8 mph - N/A   Clear
8:55 PM 56.8 °F - 47.7 °F 71% 30.31 in 10.0 mi ESE 5.8 mph - N/A   Clear
9:15 PM 55.9 °F - 48.2 °F 75% 30.31 in 10.0 mi ESE 4.6 mph - N/A   Clear
9:35 PM 55.0 °F - 48.6 °F 79% 30.32 in 10.0 mi East 4.6 mph - N/A   Clear
9:55 PM 54.5 °F - 48.9 °F 81% 30.32 in 5.0 mi East 4.6 mph - N/A   Haze
10:15 PM 54.5 °F - 49.3 °F 83% 30.32 in 7.0 mi ESE 5.8 mph - N/A   Clear
10:35 PM 54.7 °F - 50.4 °F 85% 30.31 in 7.0 mi ESE 5.8 mph - N/A   Clear
10:55 PM 54.5 °F - 50.7 °F 87% 30.32 in 7.0 mi ESE 5.8 mph - N/A   Clear
11:15 PM 54.1 °F - 50.5 °F 88% 30.31 in 10.0 mi ESE 4.6 mph - N/A   Clear
11:35 PM 53.8 °F - 50.9 °F 90% 30.31 in 10.0 mi ESE 4.6 mph - N/A   Clear
11:55 PM 53.8 °F - 51.1 °F 91% 30.30 in 10.0 mi ESE 4.6 mph - N/A   Clear